Location: Monrovia
(34.7865°N, 86.7139°W)
Time: 21:11:53
(UTC+00:00)

Cosmos 1844 Rocket - Pass Details

Date: 14 July 2020
Orbit: 826 x 843 km, 71.0° (Epoch: 08 August)

Event Time Altitude Azimuth Distance (km) Brightness Sun altitude
Rises 01:38:22 0° 337° (NNW) 3,368 6.9 -7.4°
Reaches altitude 10° 01:40:49 10° 336° (NNW) 2,432 6.1 -7.8°
Maximum altitude 01:46:22 77° 251° (WSW) 852 2.8 -8.8°
Drops below altitude 10° 01:51:55 10° 166° (SSE) 2,422 4.6 -9.7°
Enters shadow 01:53:15 - 165° (SSE) 2,939 5.1 -10.0°
